Location: Arpaise
(41.0333°N, 14.7333°E)
Time: 07:09:36
(UTC+00:00)

MetOp-A - Pass Details

Date: 05 July 2020
Orbit: 819 x 821 km, 98.5° (Epoch: 06 August)

Event Time Altitude Azimuth Distance (km) Brightness Sun altitude
Rises 19:09:29 0° 168° (SSE) 3,339 6.8 -6.0°
Reaches altitude 10° 19:11:50 10° 170° (S) 2,410 6.1 -6.3°
Maximum altitude 19:17:10 79° 257° (WSW) 841 4.3 -7.1°
Drops below altitude 10° 19:22:33 10° 344° (NNW) 2,426 7.5 -7.9°
Sets 19:24:55 0° 346° (NNW) 3,363 8.3 -8.3°
